Abilene Dyess, TX

2:09 PM CST on January 20, 2018 (GMT -0600)
Dyess Air Force Base

Weather History for KDYS - May, 2014

Change the Weather History Date:

Thursday, May 15, 2014

  Actual Average Record
Temperature  
Mean Temperature 66 °F -  
Max Temperature 83 °F 85 °F 95 °F (2001)
Min Temperature 51 °F 62 °F 48 °F (2011)
Cooling Degree Days 2    
Growing Degree Days 16 (Base 50)    
Moisture  
Dew Point 21 °F    
Average Humidity 19    
Maximum Humidity 41    
Minimum Humidity 8    
Precipitation  
Precipitation 0.00 in - - ()
Sea Level Pressure  
Sea Level Pressure 30.15 in    
Wind  
Wind Speed 8 mph (WSW)    
Max Wind Speed 18 mph    
Max Gust Speed 26 mph    
Visibility 10 miles    
Events      
Averages and records for this station are not official NWS values.
T = Trace of Precipitation, MM = Missing Value Source: NWS Daily Summary

Daily Weather History Graph

Daily Weather History Graph

Search for Another Location

Airport or City:

Trip Planner

Search our weather history database for the weather conditions in past years. The results will help you decide how hot, cold, wet, or windy it might be!

Date:

Astronomy

May. 15, 2014 Rise Set
Actual Time 6:41 AM CDT 8:30 PM CDT
Civil Twilight 6:14 AM CDT 8:57 PM CDT
Nautical Twilight 5:41 AM CDT 9:30 PM CDT
Astronomical Twilight 5:07 AM CDT 10:05 PM CDT
Moon 9:40 PM CDT (5/15) 7:28 AM CDT (5/15)
Length of Visible Light 14h 43m
Length of Day
13h 49m
Full, 99% of the Moon is Illuminated
May 15
Full
May 21
Last Quarter
May 28
New
Jun 5
First Quarter
Jun 12
Full

Hourly Weather History & Observations

Time (CDT) Temp. Dew Point Humidity Pressure Visibility Wind Dir Wind Speed Gust Speed Precip Events Conditions
12:58 AM 55.4 °F 30.2 °F 38% 30.27 in 10.0 mi SW 5.8 mph - N/A   Clear
1:58 AM - - N/A% - 10.0 mi SSW 5.8 mph - N/A   Clear
2:58 AM - - N/A% - 10.0 mi SSW 5.8 mph - N/A   Clear
3:58 AM 53.6 °F 28.4 °F 38% 30.24 in 10.0 mi SW 5.8 mph - N/A   Clear
4:58 AM 53.6 °F 28.4 °F 38% 30.24 in 10.0 mi SW 5.8 mph - N/A   Clear
5:58 AM 53.6 °F 28.4 °F 38% 30.24 in 10.0 mi SSW 1.2 mph - N/A   Clear
6:58 AM 51.8 °F 26.6 °F 38% 30.24 in 10.0 mi SSW 3.5 mph - N/A   Clear
7:58 AM 57.2 °F 33.8 °F 41% 30.25 in - Calm Calm - N/A   Clear
8:58 AM 63.7 °F 31.8 °F 30% 30.18 in 10.0 mi Variable 3.5 mph - N/A   Clear
9:58 AM 72.0 °F 22.3 °F 15% 30.25 in 10.0 mi WSW 13.8 mph 18.4 mph N/A   Clear
10:58 AM 74.8 °F 17.4 °F 11% 30.25 in 10.0 mi West 12.7 mph - N/A   Clear
11:58 AM 76.6 °F 16.7 °F 10% 30.24 in 10.0 mi West 13.8 mph 19.6 mph N/A   Clear
12:55 PM 76.6 °F 16.7 °F 10% 30.21 in 10.0 mi WNW 12.7 mph 24.2 mph N/A   Clear
12:58 PM 78.6 °F 15.1 °F 9% 30.22 in 10.0 mi NW 13.8 mph 21.9 mph N/A   Partly Cloudy
2:20 PM 80.6 °F 14.0 °F 8% 30.17 in 10.0 mi WNW 13.8 mph - N/A   Scattered Clouds
2:58 PM 81.3 °F 15.1 °F 8% 30.16 in 10.0 mi Variable 5.8 mph 26.5 mph N/A   Clear
3:46 PM 82.4 °F 15.8 °F 8% 30.13 in 10.0 mi WNW 15.0 mph 26.5 mph N/A   Clear
3:58 PM 82.2 °F 15.8 °F 8% 30.12 in 10.0 mi WNW 10.4 mph 18.4 mph N/A   Clear
4:58 PM 82.8 °F 16.2 °F 8% 30.10 in 10.0 mi WSW 18.4 mph 25.3 mph N/A   Clear
5:58 PM 82.9 °F 16.3 °F 8% 30.08 in 10.0 mi WNW 13.8 mph - N/A   Clear
6:58 PM 82.4 °F 15.8 °F 8% 30.07 in 10.0 mi West 12.7 mph 20.7 mph N/A   Clear
7:58 PM 80.4 °F 14.4 °F 8% 30.07 in 10.0 mi WSW 11.5 mph - N/A   Partly Cloudy
8:58 PM 71.6 °F 20.3 °F 14% 29.98 in 10.0 mi SW 8.1 mph - N/A   Clear
9:58 PM 67.6 °F 21.7 °F 18% 29.96 in 10.0 mi SW 9.2 mph - N/A   Clear
10:58 PM 62.6 °F 23.5 °F 23% 29.98 in 10.0 mi SSW 9.2 mph - N/A   Clear
11:58 PM 68.9 °F 17.6 °F 14% 29.95 in 10.0 mi SSW 15.0 mph - N/A   Clear